Waarnemingen

Advertentie
Mijn weer
Le Touquet, Frankrijk (7003): temperatuur & dauwpunt: 26.05.2020 02:00:00 - 01.06.2020 02:00:00 (CEST)Le Touquet, Frankrijk (7003): temperatuur 5cm: 26.05.2020 02:00:00 - 01.06.2020 02:00:00 (CEST)Le Touquet, Frankrijk (7003): windsnelheid & windstoten: 26.05.2020 02:00:00 - 01.06.2020 02:00:00 (CEST)Le Touquet, Frankrijk (7003): windrichting: 26.05.2020 02:00:00 - 01.06.2020 02:00:00 (CEST)Le Touquet, Frankrijk (7003): luchtdruk: 26.05.2020 02:00:00 - 01.06.2020 02:00:00 (CEST)Le Touquet, Frankrijk (7003): zicht: 26.05.2020 02:00:00 - 01.06.2020 02:00:00 (CEST)Le Touquet, Frankrijk (7003): Zonneschijnduur: 26.05.2020 02:00:00 - 01.06.2020 02:00:00 (CEST)Le Touquet, Frankrijk (7003): neerslag: 26.05.2020 02:00:00 - 01.06.2020 02:00:00 (CEST)
Datum & Tijd tt [°C] td [°C] tt 5cm [°C] ff [km/u] ff [kn] fx [km/u] fx [kn] dd ppp [hPa] vv [km] sd [min] rr [mm]
01.06.2020 02:00:00 14,8 8,7 10,9 15 8 25 13 NO 1021,1 60 0 0,0
01.06.2020 01:00:00 14,8 8,9 11,3 13 7 24 13 NO 1021,1 60 0 0,0
01.06.2020 00:00:00 15,1 9,0 12,0 15 8 27 15 NO 1021,1 60 0 0,0
31.05.2020 23:00:00 15,9 8,9 12,9 16 8 27 15 NO 1021,0 60 0 0,0
31.05.2020 22:00:00 16,8 8,5 14,1 18 10 37 20 NO 1020,6 60 18 0,0
31.05.2020 21:00:00 18,7 8,1 16,8 19 10 39 21 NO 1020,4 10 60 0,0
31.05.2020 20:00:00 20,2 7,2 19,3 23 12 40 21 NO 1020,0 9 60 0,0
31.05.2020 19:00:00 21,4 7,2 22,6 25 14 44 24 NO 1019,8 8 60 0,0
31.05.2020 18:00:00 21,9 8,0 28,0 27 14 42 23 NNO 1019,9 9 60 0,0
31.05.2020 17:00:00 22,5 7,8 29,1 29 15 45 24 NNO 1019,9 13 53 0,0
31.05.2020 16:00:00 23,6 7,6 30,8 22 12 42 23 NNO 1020,2 25 48 0,0
31.05.2020 15:00:00 23,8 6,6 33,4 21 11 41 22 NO 1020,4 41 55 0,0
31.05.2020 14:00:00 23,9 5,7 33,9 14 7 35 19 ONO 1020,7 12 56 0,0
31.05.2020 13:00:00 23,3 5,7 32,5 21 11 40 22 O 1021,2 14 60 0,0
31.05.2020 12:00:00 22,8 4,8 26,2 18 10 32 18 O 1021,5 12 60 0,0
31.05.2020 11:00:00 21,6 6,3 22,4 15 8 28 15 O 1021,6 13 60 0,0
31.05.2020 10:00:00 20,2 5,8 18,4 15 8 23 12 O 1021,7 14 60 0,0
31.05.2020 09:00:00 18,4 7,2 14,3 14 8 22 12 O 1021,7 16 60 0,0
31.05.2020 08:00:00 16,5 7,2 11,3 11 6 18 10 O 1021,4 17 60 0,0
31.05.2020 07:00:00 14,5 6,8 8,3 13 7 22 12 O 1021,1 18 39 0,0
31.05.2020 06:00:00 12,8 6,6 8,5 9 5 19 10 O 1020,7 55 0 0,0
31.05.2020 05:00:00 13,9 7,2 9,6 12 7 21 11 O 1020,4 54 0 0,0
31.05.2020 04:00:00 14,5 7,8 9,6 12 7 20 11 O 1020,5 50 0 0,0
31.05.2020 03:00:00 14,4 8,3 10,1 10 5 22 12 O 1020,6 46 0 0,0
31.05.2020 02:00:00 15,6 8,6 11,4 16 9 27 15 ONO 1020,6 58 0 0,0
31.05.2020 01:00:00 15,8 8,0 11,5 11 6 27 14 ONO 1020,7 60 0 0,0
31.05.2020 00:00:00 16,8 7,4 12,7 15 8 31 17 NO 1020,5 60 0 0,0
30.05.2020 23:00:00 17,2 7,5 13,6 19 10 31 17 NO 1020,3 60 0 0,0
30.05.2020 22:00:00 17,7 7,7 14,4 18 10 35 19 NO 1020,1 60 17 0,0
30.05.2020 21:00:00 19,8 7,8 17,1 20 11 31 17 NO 1019,7 10 60 0,0
30.05.2020 20:00:00 21,9 7,3 20,5 21 12 37 20 NO 1019,5 23 60 0,0
30.05.2020 19:00:00 24,4 4,7 26,0 18 10 33 18 ONO 1019,4 17 60 0,0
30.05.2020 18:00:00 25,0 5,7 31,0 19 10 32 17 O 1019,8 49 60 0,0
30.05.2020 17:00:00 25,1 6,3 36,2 14 8 30 16 O 1020,1 13 57 0,0
30.05.2020 16:00:00 23,6 8,4 36,0 21 11 34 19 NW 1020,5 11 58 0,0
30.05.2020 15:00:00 23,4 10,4 41,7 21 11 36 20 NW 1020,9 15 60 0,0
30.05.2020 14:00:00 24,4 5,7 39,4 7 4 25 14 NO 1021,3 17 60 0,0
30.05.2020 13:00:00 23,7 6,0 31,9 10 5 27 15 O 1021,8 17 60 0,0
30.05.2020 12:00:00 22,9 5,3 28,3 16 9 29 16 OZO 1022,2 15 60 0,0
30.05.2020 11:00:00 22,2 6,4 23,7 16 9 27 15 ONO 1022,4 13 60 0,0
30.05.2020 10:00:00 21,0 7,9 18,4 15 8 21 11 O 1022,5 15 60 0,0
30.05.2020 09:00:00 18,7 8,9 13,9 13 7 22 12 O 1022,5 17 60 0,0
30.05.2020 08:00:00 16,3 8,3 9,8 12 7 19 10 O 1022,4 18 60 0,0
30.05.2020 07:00:00 13,5 8,3 8,1 8 4 16 9 O 1022,5 17 38 0,0
30.05.2020 06:00:00 11,9 8,7 7,8 9 5 16 9 O 1022,6 19 0 0,0
30.05.2020 05:00:00 11,4 9,1 8,4 9 5 19 10 OZO 1022,7 15 0 0,0
30.05.2020 04:00:00 12,0 9,6 8,9 10 5 23 12 OZO 1022,9 17 0 0,0
30.05.2020 03:00:00 13,0 9,6 9,8 11 6 22 12 O 1023,2 20 0 0,0
30.05.2020 02:00:00 13,8 9,0 10,1 14 8 25 14 O 1023,4 41 0 0,0
30.05.2020 01:00:00 13,7 7,9 9,7 14 8 25 14 ONO 1023,6 48 0 0,0
30.05.2020 00:00:00 14,0 7,1 10,9 14 7 35 19 ONO 1023,8 54 0 0,0
29.05.2020 23:00:00 14,3 6,6 11,6 18 10 34 19 NO 1023,7 59 0 0,0
29.05.2020 22:00:00 15,3 6,0 12,9 20 11 39 21 NO 1023,5 60 16 0,0
29.05.2020 21:00:00 17,2 5,5 15,3 22 12 36 20 NO 1023,3 14 60 0,0
29.05.2020 20:00:00 19,1 6,2 18,4 22 12 37 20 NO 1023,5 11 60 0,0
29.05.2020 19:00:00 20,8 6,7 23,1 23 13 43 23 NO 1023,7 12 60 0,0
29.05.2020 18:00:00 21,7 7,5 28,2 25 13 39 21 NO 1024,0 11 60 0,0
29.05.2020 17:00:00 23,8 3,7 36,4 16 9 36 19 O 1024,2 13 60 0,0
29.05.2020 16:00:00 23,8 3,7 39,9 18 10 34 18 O 1024,8 13 60 0,0
29.05.2020 15:00:00 23,6 4,5 39,9 20 11 36 19 O 1025,5 13 60 0,0
29.05.2020 14:00:00 22,8 3,8 33,2 17 9 31 17 O 1026,3 12 60 0,0
29.05.2020 13:00:00 22,4 5,3 30,5 18 10 32 17 O 1026,9 13 60 0,0
29.05.2020 12:00:00 21,5 7,0 28,2 17 9 29 16 O 1027,5 15 60 0,0
29.05.2020 11:00:00 20,4 8,4 22,3 12 7 21 11 O 1027,9 18 60 0,0
29.05.2020 10:00:00 18,5 7,6 16,8 11 6 24 13 O 1028,0 17 60 0,0
29.05.2020 09:00:00 16,1 6,8 12,6 13 7 27 14 O 1028,2 11 60 0,0
29.05.2020 08:00:00 13,6 6,5 9,6 18 10 29 16 O 1028,1 12 60 0,0
29.05.2020 07:00:00 12,0 6,3 7,9 14 8 25 14 O 1028,4 15 38 0,0
29.05.2020 06:00:00 11,0 6,5 7,7 14 7 23 12 O 1028,5 56 0 0,0
29.05.2020 05:00:00 11,4 7,1 7,8 13 7 23 13 O 1028,7 60 0 0,0
29.05.2020 04:00:00 11,5 7,8 7,5 14 7 24 13 O 1028,9 52 0 0,0
29.05.2020 03:00:00 11,6 8,1 8,5 10 5 28 15 OZO 1029,3 57 0 0,0
29.05.2020 02:00:00 13,2 8,3 9,7 18 10 29 16 ONO 1029,2 60 0 0,0
29.05.2020 01:00:00 13,4 8,5 10,4 16 9 30 16 ONO 1029,4 59 0 0,0
29.05.2020 00:00:00 13,7 8,1 10,7 19 11 32 17 NO 1029,6 60 0 0,0
28.05.2020 23:00:00 14,1 8,1 11,6 20 11 35 19 NO 1029,6 60 0 0,0
28.05.2020 22:00:00 14,7 8,4 12,4 19 10 35 19 NO 1029,5 58 15 0,0
28.05.2020 21:00:00 16,3 8,5 14,9 21 11 41 22 NO 1029,5 19 60 0,0
28.05.2020 20:00:00 18,4 8,1 18,0 23 12 39 21 NO 1029,6 15 60 0,0
28.05.2020 19:00:00 20,1 9,0 22,7 21 11 42 23 NO 1029,7 9 60 0,0
28.05.2020 18:00:00 21,1 9,3 27,5 23 12 41 22 NO 1030,0 10 60 0,0
28.05.2020 17:00:00 22,5 5,0 34,4 19 10 46 25 ONO 1030,3 11 60 0,0
28.05.2020 16:00:00 22,3 4,8 37,9 24 13 38 21 NO 1030,8 12 60 0,0
28.05.2020 15:00:00 22,2 3,8 37,4 24 13 41 22 O 1031,4 10 60 0,0
28.05.2020 14:00:00 21,2 3,4 32,3 21 12 39 21 ONO 1032,2 7 60 0,0
28.05.2020 13:00:00 20,2 5,4 28,0 19 10 36 20 O 1032,7 8 60 0,0
28.05.2020 12:00:00 19,2 4,9 23,6 22 12 37 20 O 1033,1 9 60 0,0
28.05.2020 11:00:00 17,5 5,4 20,3 22 12 35 19 O 1033,6 10 60 0,0
28.05.2020 10:00:00 16,5 6,9 15,7 13 7 26 14 ONO 1033,9 12 60 0,0
28.05.2020 09:00:00 14,8 6,9 12,2 17 9 27 15 ONO 1034,2 13 60 0,0
28.05.2020 08:00:00 13,5 8,3 10,0 15 8 26 14 ONO 1034,1 10 60 0,0
28.05.2020 07:00:00 11,9 10,0 7,8 10 5 19 10 ONO 1034,2 10 37 0,0
28.05.2020 06:00:00 10,8 9,7 7,4 9 5 16 9 NO 1034,2 9 0 0,0
28.05.2020 05:00:00 10,4 9,2 5,7 9 5 14 8 ONO 1034,3 12 0 0,0
28.05.2020 04:00:00 10,5 8,9 7,6 6 4 23 12 ONO 1034,5 11 0 0,0
28.05.2020 03:00:00 11,4 9,6 9,7 14 8 25 14 NO 1034,5 14 0 0,0
28.05.2020 02:00:00 12,4 9,4 9,9 17 9 26 14 NO 1034,7 33 0 0,0
28.05.2020 01:00:00 13,4 9,1 10,8 15 8 27 14 NO 1034,9 49 0 0,0
28.05.2020 00:00:00 13,9 8,1 10,9 11 6 24 13 ONO 1034,8 60 0 0,0
27.05.2020 23:00:00 15,0 7,8 11,2 14 8 21 12 ONO 1034,8 60 0 0,0
27.05.2020 22:00:00 16,3 7,5 12,9 15 8 26 14 ONO 1034,5 60 14 0,0
27.05.2020 21:00:00 18,2 7,6 15,3 13 7 27 15 ONO 1034,1 53 60 0,0
27.05.2020 20:00:00 20,2 7,9 19,2 18 10 33 18 NO 1034,0 19 60 0,0
27.05.2020 19:00:00 21,3 8,9 22,9 21 11 35 19 NO 1034,0 13 60 0,0
27.05.2020 18:00:00 22,3 9,1 29,5 21 11 34 18 ONO 1034,1 13 60 0,0
27.05.2020 17:00:00 22,8 10,6 33,6 23 12 36 20 NNO 1034,2 11 60 0,0
27.05.2020 16:00:00 23,0 10,4 38,1 23 12 34 18 NO 1034,4 13 60 0,0
27.05.2020 15:00:00 23,2 10,6 40,6 22 12 37 20 NNO 1034,4 20 60 0,0
27.05.2020 14:00:00 23,5 10,9 40,3 20 11 34 18 NNO 1034,6 20 60 0,0
27.05.2020 13:00:00 23,2 10,3 35,7 11 6 33 18 N 1034,8 16 60 0,0
27.05.2020 12:00:00 22,9 8,9 28,5 6 3 22 12 O 1035,2 18 60 0,0
27.05.2020 11:00:00 21,8 9,0 21,8 12 6 22 12 O 1035,2 28 60 0,0
27.05.2020 10:00:00 20,2 5,4 18,5 13 7 22 12 O 1035,3 32 60 0,0
27.05.2020 09:00:00 18,3 8,3 13,2 11 6 17 9 O 1035,4 42 60 0,0
27.05.2020 08:00:00 16,5 8,5 8,9 4 2 8 4 ZO 1035,3 44 60 0,0
27.05.2020 07:00:00 13,1 6,7 7,6 4 2 13 7 Z 1035,3 50 36 0,0
27.05.2020 06:00:00 11,5 6,8 6,0 9 5 11 6 ZZO 1034,8 55 0 0,0
27.05.2020 05:00:00 12,0 6,9 6,6 5 3 10 5 ZO 1035,0 59 0 0,0
27.05.2020 04:00:00 12,4 7,7 7,5 7 4 11 6 ZZO 1035,1 58 0 0,0
27.05.2020 03:00:00 12,9 8,2 6,9 6 3 12 6 ZO 1035,2 58 0 0,0
27.05.2020 02:00:00 12,7 8,8 6,4 5 3 8 4 ZZO 1035,2 45 0 0,0
27.05.2020 01:00:00 12,3 10,2 6,3 3 2 5 3 Z 1035,2 49 0 0,0
27.05.2020 00:00:00 13,3 11,0 6,9 0 0 3 2 N 1035,2 20 0 0,0
26.05.2020 23:00:00 14,0 11,9 7,8 2 1 6 4 NW 1035,1 20 0 0,0
26.05.2020 22:00:00 14,7 12,0 10,6 3 2 13 7 NW 1035,0 36 13 0,0
26.05.2020 21:00:00 17,0 12,5 15,2 6 3 18 10 NNW 1034,7 41 60 0,0
26.05.2020 20:00:00 20,1 11,8 19,2 11 6 21 11 NNW 1034,6 13 60 0,0
26.05.2020 19:00:00 21,8 10,9 23,2 14 8 24 13 NW 1034,6 7 60 0,0
26.05.2020 18:00:00 20,7 10,8 25,9 17 9 27 15 NW 1034,8 6 60 0,0
26.05.2020 17:00:00 21,2 9,7 33,1 17 9 26 14 NW 1035,1 8 60 0,0
26.05.2020 16:00:00 21,3 10,1 37,6 18 10 26 14 NW 1035,5 9 60 0,0
26.05.2020 15:00:00 21,0 10,5 38,2 19 11 27 15 NNW 1035,7 12 60 0,0
26.05.2020 14:00:00 20,7 11,1 40,8 15 8 19 11 NNW 1036,0 16 60 0,0
26.05.2020 13:00:00 20,6 11,2 39,7 10 5 19 10 NW 1036,1 18 60 0,0
26.05.2020 12:00:00 21,1 11,4 35,6 12 6 17 9 NNW 1036,2 19 60 0,0
26.05.2020 11:00:00 21,5 8,7 22,6 5 3 14 7 NW 1036,0 19 60 0,0
26.05.2020 10:00:00 19,7 11,5 17,3 4 2 8 5 O 1036,1 20 60 0,0
26.05.2020 09:00:00 15,8 11,0 10,8 6 3 10 5 ZO 1036,0 19 60 0,0
26.05.2020 08:00:00 11,5 9,4 7,9 6 3 10 5 ZO 1035,8 17 60 0,0
26.05.2020 07:00:00 9,2 8,1 5,8 5 3 12 7 ZZO 1035,9 19 35 0,2
26.05.2020 06:00:00 8,0 7,2 3,7 8 4 11 6 ZZO 1035,6 16 0 0,0
26.05.2020 05:00:00 8,7 7,6 3,3 4 2 9 5 Z 1035,3 18 0 0,0
26.05.2020 04:00:00 8,8 7,1 3,3 5 3 8 4 ZZO 1035,2 20 0 0,0
26.05.2020 03:00:00 9,6 7,5 3,4 0 0 6 3 N 1035,4 17 0 0,0
26.05.2020 02:00:00 9,8 7,7 3,9 5 3 6 4 ZZO 1035,3 41 0 0,0

tt = temperatuur
td = dauwpunt
tt 5cm = temperatuur 5cm
ff = windsnelheid
fx = windstoten
dd = windrichting
ppp = luchtdruk
vv = zicht
sd = Zonneschijnduur
rr = neerslag

Weerstations in de omgeving